Location: Demmingen
(48.6757°N, 10.4375°E)
Time: 23:47:48
(UTC+00:00)

CZ-2C R/B - Pass Details

Date: 07 August 2024
Orbit: 703 x 904 km, 98.2° (Epoch: 07 September)

Event Time Altitude Azimuth Distance (km) Brightness Sun altitude
Rises 02:31:53 0° 5° (N) 3,144 7.0 -12.8°
Reaches altitude 10° 02:34:23 10° 353° (N) 2,239 5.9 -12.5°
Maximum altitude 02:38:30 28° 296° (WNW) 1,396 4.2 -12.0°
Enters shadow 02:41:49 14° 246° (WSW) 2,015 4.6 -11.6°
